GLO1368 SBSP-SBSR

Flight info

Callsign GLO1368
Flight time 0h 46m
Altitude 26000
Route GERTU UL201 UPONA
Aircraft B738/M-SDE2E3FGHIRWXY/LB1

Departure

Time 2026-04-22 13:09
Airport Congonhas–Deputado Freitas Nobre Airport (SBSP)

Arrival

Time 2026-04-22 13:56
Airport Prof. Eribelto Manoel Reino State Airport (SBSR)
Time Latitude Longitude Altitude Speed Heading
2026-04-22 13:05 -23.62625 -46.65783 2601 ft 8 kts 328°
2026-04-22 13:06 -23.62580 -46.65814 2601 ft 8 kts 328°
2026-04-22 13:06 -23.62533 -46.65846 2601 ft 8 kts 328°
2026-04-22 13:06 -23.62483 -46.65881 2600 ft 10 kts 327°
2026-04-22 13:06 -23.62418 -46.65926 2600 ft 12 kts 328°
2026-04-22 13:07 -23.62350 -46.65973 2599 ft 11 kts 328°
2026-04-22 13:07 -23.62286 -46.66017 2599 ft 11 kts 328°
2026-04-22 13:07 -23.62219 -46.66056 2592 ft 11 kts 335°
2026-04-22 13:07 -23.62157 -46.66099 2588 ft 10 kts 326°
2026-04-22 13:08 -23.62096 -46.66137 2594 ft 10 kts 342°
2026-04-22 13:08 -23.62036 -46.66108 2594 ft 11 kts 65°
2026-04-22 13:08 -23.62050 -46.66075 2595 ft 0 kts 145°
2026-04-22 13:09 -23.62234 -46.65947 2599 ft 73 kts 147°
2026-04-22 13:09 -23.62881 -46.65498 2607 ft 145 kts 148°
2026-04-22 13:09 -23.63820 -46.64837 3062 ft 168 kts 145°
2026-04-22 13:09 -23.64817 -46.64126 3896 ft 175 kts 146°
2026-04-22 13:10 -23.66028 -46.63800 4624 ft 196 kts 185°
2026-04-22 13:10 -23.67467 -46.64046 4925 ft 222 kts 187°
2026-04-22 13:10 -23.69087 -46.64272 5139 ft 246 kts 186°
2026-04-22 13:10 -23.70857 -46.64477 5404 ft 268 kts 185°
2026-04-22 13:11 -23.72753 -46.64673 5924 ft 279 kts 185°
2026-04-22 13:11 -23.74691 -46.64961 6747 ft 283 kts 197°
2026-04-22 13:11 -23.76367 -46.66042 7245 ft 280 kts 227°
2026-04-22 13:11 -23.77355 -46.67873 7474 ft 287 kts 253°
2026-04-22 13:12 -23.77531 -46.70044 7496 ft 289 kts 274°
2026-04-22 13:12 -23.77746 -46.72193 7464 ft 286 kts 245°
2026-04-22 13:12 -23.78775 -46.74038 7486 ft 285 kts 235°
2026-04-22 13:12 -23.79958 -46.75794 7674 ft 290 kts 232°
2026-04-22 13:13 -23.81177 -46.77557 8503 ft 291 kts 233°
2026-04-22 13:13 -23.82360 -46.79354 9377 ft 292 kts 234°
2026-04-22 13:13 -23.83521 -46.81196 10147 ft 296 kts 235°
2026-04-22 13:13 -23.84687 -46.83090 10728 ft 309 kts 235°
2026-04-22 13:14 -23.85912 -46.85130 10916 ft 333 kts 240°
2026-04-22 13:14 -23.86637 -46.87571 11389 ft 346 kts 265°
2026-04-22 13:14 -23.86342 -46.90183 12098 ft 351 kts 289°
2026-04-22 13:14 -23.85239 -46.92567 12865 ft 353 kts 299°
2026-04-22 13:15 -23.83964 -46.94876 13601 ft 356 kts 301°
2026-04-22 13:15 -23.82678 -46.97155 14296 ft 359 kts 300°
2026-04-22 13:15 -23.81373 -46.99486 15001 ft 361 kts 300°
2026-04-22 13:15 -23.80073 -47.01839 15702 ft 363 kts 300°
2026-04-22 13:16 -23.78778 -47.04212 16390 ft 364 kts 299°
2026-04-22 13:16 -23.77483 -47.06595 17060 ft 366 kts 299°
2026-04-22 13:16 -23.76180 -47.08993 17670 ft 369 kts 299°
2026-04-22 13:16 -23.74710 -47.11302 18269 ft 375 kts 313°
2026-04-22 13:17 -23.72577 -47.12962 18861 ft 382 kts 332°
2026-04-22 13:17 -23.70021 -47.13829 19412 ft 389 kts 346°
2026-04-22 13:17 -23.67346 -47.14380 19904 ft 394 kts 347°
2026-04-22 13:17 -23.64632 -47.14916 20381 ft 398 kts 347°
2026-04-22 13:18 -23.61897 -47.15485 20874 ft 402 kts 346°
2026-04-22 13:18 -23.59146 -47.16081 21373 ft 405 kts 346°
2026-04-22 13:18 -23.56375 -47.16690 21838 ft 408 kts 345°
2026-04-22 13:18 -23.53580 -47.17305 22289 ft 411 kts 345°
2026-04-22 13:19 -23.50769 -47.17924 22725 ft 415 kts 345°
2026-04-22 13:19 -23.47930 -47.18547 23150 ft 418 kts 345°
2026-04-22 13:19 -23.45068 -47.19174 23546 ft 421 kts 345°
2026-04-22 13:19 -23.42182 -47.19806 23928 ft 425 kts 345°
2026-04-22 13:20 -23.39274 -47.20443 24301 ft 428 kts 345°
2026-04-22 13:20 -23.36344 -47.21083 24669 ft 431 kts 345°
2026-04-22 13:20 -23.33390 -47.21731 25015 ft 435 kts 345°
2026-04-22 13:20 -23.30408 -47.22381 25340 ft 439 kts 345°
2026-04-22 13:21 -23.27403 -47.23038 25657 ft 443 kts 344°
2026-04-22 13:21 -23.24375 -47.23698 26019 ft 445 kts 345°
2026-04-22 13:21 -23.21331 -47.24362 26197 ft 449 kts 345°
2026-04-22 13:21 -23.18259 -47.25030 26185 ft 449 kts 345°
2026-04-22 13:22 -23.15209 -47.25693 26172 ft 444 kts 345°
2026-04-22 13:22 -23.12227 -47.26340 26182 ft 442 kts 345°
2026-04-22 13:22 -23.09208 -47.26997 26192 ft 444 kts 345°
2026-04-22 13:22 -23.06173 -47.27658 26191 ft 445 kts 345°
2026-04-22 13:23 -23.03129 -47.28320 26188 ft 447 kts 345°
2026-04-22 13:23 -23.00071 -47.28985 26187 ft 447 kts 345°
2026-04-22 13:23 -22.97023 -47.29646 26189 ft 448 kts 345°
2026-04-22 13:23 -22.93967 -47.30310 26175 ft 448 kts 345°
2026-04-22 13:24 -22.90877 -47.30980 26177 ft 447 kts 345°
2026-04-22 13:24 -22.87867 -47.31633 26171 ft 447 kts 345°
2026-04-22 13:24 -22.84818 -47.32294 26184 ft 446 kts 345°
2026-04-22 13:24 -22.81777 -47.32954 26178 ft 445 kts 345°
2026-04-22 13:25 -22.78726 -47.33615 26188 ft 451 kts 345°
2026-04-22 13:25 -22.75629 -47.34287 26187 ft 459 kts 345°
2026-04-22 13:25 -22.72471 -47.34972 26188 ft 466 kts 345°
2026-04-22 13:25 -22.69276 -47.35669 26183 ft 471 kts 343°
2026-04-22 13:26 -22.66209 -47.36853 26163 ft 467 kts 326°
2026-04-22 13:26 -22.63548 -47.38857 26195 ft 467 kts 318°
2026-04-22 13:26 -22.60989 -47.41046 26184 ft 471 kts 317°
2026-04-22 13:26 -22.58421 -47.43271 26177 ft 475 kts 317°
2026-04-22 13:27 -22.55824 -47.45499 26181 ft 478 kts 318°
2026-04-22 13:27 -22.53191 -47.47722 26180 ft 481 kts 319°
2026-04-22 13:27 -22.50535 -47.49939 26166 ft 484 kts 319°
2026-04-22 13:27 -22.47853 -47.52168 26157 ft 487 kts 319°
2026-04-22 13:28 -22.45169 -47.54396 26166 ft 487 kts 319°
2026-04-22 13:28 -22.42492 -47.56650 26162 ft 487 kts 316°
2026-04-22 13:28 -22.40004 -47.59122 26166 ft 485 kts 311°
2026-04-22 13:28 -22.37665 -47.61740 26176 ft 484 kts 309°
2026-04-22 13:29 -22.35387 -47.64409 26163 ft 484 kts 309°
2026-04-22 13:29 -22.33109 -47.67087 26161 ft 484 kts 309°
2026-04-22 13:29 -22.30814 -47.69749 26161 ft 484 kts 309°
2026-04-22 13:29 -22.28527 -47.72357 26161 ft 484 kts 310°
2026-04-22 13:30 -22.26604 -47.74523 26152 ft 484 kts 310°
2026-04-22 13:30 -22.25938 -47.75270 26151 ft 484 kts 310°
2026-04-22 13:30 -22.23599 -47.77881 26156 ft 484 kts 310°
2026-04-22 13:30 -22.21252 -47.80490 26165 ft 484 kts 310°
2026-04-22 13:31 -22.18908 -47.83095 26159 ft 484 kts 310°
2026-04-22 13:31 -22.16565 -47.85698 26158 ft 483 kts 310°
2026-04-22 13:31 -22.14224 -47.88300 26155 ft 483 kts 310°
2026-04-22 13:31 -22.11891 -47.90894 26153 ft 482 kts 310°
2026-04-22 13:32 -22.09827 -47.93188 26157 ft 482 kts 310°
2026-04-22 13:32 -22.07491 -47.95783 26159 ft 482 kts 310°
2026-04-22 13:32 -22.05155 -47.98378 26157 ft 482 kts 310°
2026-04-22 13:32 -22.02818 -48.00972 26152 ft 482 kts 310°
2026-04-22 13:33 -22.00482 -48.03563 26162 ft 482 kts 310°
2026-04-22 13:33 -21.98146 -48.06153 26158 ft 482 kts 310°
2026-04-22 13:33 -21.95810 -48.08742 26159 ft 482 kts 310°
2026-04-22 13:33 -21.93471 -48.11334 26148 ft 482 kts 310°
2026-04-22 13:34 -21.91131 -48.13927 26149 ft 483 kts 310°
2026-04-22 13:34 -21.88790 -48.16518 26148 ft 482 kts 310°
2026-04-22 13:34 -21.86454 -48.19102 26152 ft 483 kts 311°
2026-04-22 13:34 -21.84114 -48.21685 26138 ft 477 kts 311°
2026-04-22 13:35 -21.81843 -48.24182 26127 ft 457 kts 310°
2026-04-22 13:35 -21.79662 -48.26578 26129 ft 439 kts 310°
2026-04-22 13:35 -21.77566 -48.28882 26127 ft 422 kts 310°
2026-04-22 13:35 -21.75551 -48.31099 26091 ft 408 kts 310°
2026-04-22 13:36 -21.73584 -48.33267 25782 ft 401 kts 310°
2026-04-22 13:36 -21.71648 -48.35402 25385 ft 397 kts 310°
2026-04-22 13:36 -21.69727 -48.37523 24985 ft 394 kts 310°
2026-04-22 13:36 -21.67825 -48.39621 24575 ft 391 kts 310°
2026-04-22 13:37 -21.65933 -48.41706 24164 ft 388 kts 310°
2026-04-22 13:37 -21.64051 -48.43777 23752 ft 386 kts 310°
2026-04-22 13:37 -21.62182 -48.45832 23338 ft 383 kts 311°
2026-04-22 13:37 -21.60329 -48.47869 22931 ft 380 kts 311°
2026-04-22 13:38 -21.58485 -48.49895 22522 ft 378 kts 311°
2026-04-22 13:38 -21.54829 -48.53909 21702 ft 373 kts 311°
2026-04-22 13:38 -21.53041 -48.55871 21309 ft 371 kts 311°
2026-04-22 13:39 -21.51217 -48.57873 20893 ft 369 kts 311°
2026-04-22 13:39 -21.49425 -48.59837 20492 ft 367 kts 312°
2026-04-22 13:39 -21.47643 -48.61790 20086 ft 365 kts 312°
2026-04-22 13:39 -21.45898 -48.63701 19698 ft 363 kts 312°
2026-04-22 13:40 -21.44135 -48.65632 19307 ft 361 kts 312°
2026-04-22 13:40 -21.42383 -48.67550 18910 ft 359 kts 312°
2026-04-22 13:40 -21.40640 -48.69457 18519 ft 357 kts 313°
2026-04-22 13:40 -21.38909 -48.71352 18131 ft 354 kts 312°
2026-04-22 13:41 -21.37187 -48.73236 17740 ft 353 kts 313°
2026-04-22 13:41 -21.35473 -48.75109 17356 ft 351 kts 313°
2026-04-22 13:41 -21.33769 -48.76971 16962 ft 349 kts 313°
2026-04-22 13:41 -21.32077 -48.78819 16579 ft 347 kts 313°
2026-04-22 13:42 -21.30391 -48.80662 16196 ft 345 kts 313°
2026-04-22 13:42 -21.28711 -48.82495 15814 ft 344 kts 313°
2026-04-22 13:42 -21.27040 -48.84321 15435 ft 342 kts 313°
2026-04-22 13:42 -21.25374 -48.86138 15052 ft 341 kts 313°
2026-04-22 13:43 -21.23717 -48.87945 14673 ft 339 kts 313°
2026-04-22 13:43 -21.22082 -48.89755 14282 ft 337 kts 309°
2026-04-22 13:43 -21.20774 -48.91818 13868 ft 334 kts 295°
2026-04-22 13:43 -21.19902 -48.94121 13436 ft 334 kts 288°
2026-04-22 13:44 -21.19129 -48.96462 13057 ft 333 kts 288°
2026-04-22 13:44 -21.18374 -48.98802 12661 ft 331 kts 287°
2026-04-22 13:44 -21.17630 -49.01102 12296 ft 331 kts 288°
2026-04-22 13:44 -21.16873 -49.03424 11919 ft 330 kts 288°
2026-04-22 13:45 -21.16114 -49.05735 11552 ft 328 kts 288°
2026-04-22 13:45 -21.15354 -49.08033 11181 ft 327 kts 288°
2026-04-22 13:45 -21.14595 -49.10323 10806 ft 326 kts 288°
2026-04-22 13:45 -21.13839 -49.12595 10561 ft 320 kts 289°
2026-04-22 13:46 -21.13102 -49.14808 10417 ft 311 kts 289°
2026-04-22 13:46 -21.12384 -49.16960 10274 ft 303 kts 289°
2026-04-22 13:46 -21.11686 -49.19052 10142 ft 295 kts 289°
2026-04-22 13:46 -21.10999 -49.21108 9865 ft 292 kts 289°
2026-04-22 13:47 -21.10316 -49.23151 9587 ft 290 kts 289°
2026-04-22 13:47 -21.09637 -49.25180 9308 ft 289 kts 289°
2026-04-22 13:47 -21.08962 -49.27198 9028 ft 287 kts 289°
2026-04-22 13:47 -21.08291 -49.29203 8726 ft 286 kts 290°
2026-04-22 13:48 -21.07622 -49.31201 8443 ft 284 kts 290°
2026-04-22 13:48 -21.06956 -49.33188 8142 ft 283 kts 290°
2026-04-22 13:48 -21.06291 -49.35169 7836 ft 282 kts 290°
2026-04-22 13:48 -21.05630 -49.37141 7553 ft 281 kts 290°
2026-04-22 13:49 -21.05195 -49.38440 7366 ft 278 kts 290°
2026-04-22 13:49 -21.04543 -49.40386 7078 ft 277 kts 290°
2026-04-22 13:49 -21.03894 -49.42321 6777 ft 276 kts 290°
2026-04-22 13:49 -21.03243 -49.44258 6505 ft 275 kts 290°
2026-04-22 13:50 -21.02599 -49.46175 6227 ft 274 kts 290°
2026-04-22 13:50 -21.01956 -49.48079 5963 ft 271 kts 290°
2026-04-22 13:50 -21.01318 -49.49975 5671 ft 270 kts 290°
2026-04-22 13:50 -21.00521 -49.51752 5553 ft 262 kts 310°
2026-04-22 13:51 -20.99102 -49.52906 5389 ft 256 kts 336°
2026-04-22 13:51 -20.97439 -49.53531 5245 ft 250 kts 343°
2026-04-22 13:51 -20.95802 -49.54096 5115 ft 244 kts 342°
2026-04-22 13:51 -20.94220 -49.54617 4993 ft 232 kts 349°
2026-04-22 13:52 -20.92675 -49.54509 4827 ft 216 kts 23°
2026-04-22 13:52 -20.91464 -49.53699 4712 ft 197 kts 43°
2026-04-22 13:52 -20.90595 -49.52628 4444 ft 190 kts 52°
2026-04-22 13:52 -20.89781 -49.51520 4182 ft 188 kts 52°
2026-04-22 13:53 -20.88974 -49.50425 3900 ft 185 kts 52°
2026-04-22 13:53 -20.88193 -49.49373 3671 ft 177 kts 52°
2026-04-22 13:53 -20.87438 -49.48360 3474 ft 171 kts 52°
2026-04-22 13:53 -20.86737 -49.47417 3245 ft 160 kts 53°
2026-04-22 13:54 -20.86065 -49.46507 3097 ft 156 kts 53°
2026-04-22 13:54 -20.85378 -49.45589 2840 ft 155 kts 53°
2026-04-22 13:54 -20.84711 -49.44701 2645 ft 152 kts 52°
2026-04-22 13:54 -20.84054 -49.43824 2448 ft 150 kts 52°
2026-04-22 13:55 -20.83397 -49.42948 2249 ft 152 kts 53°
2026-04-22 13:55 -20.82745 -49.42077 2047 ft 152 kts 52°
2026-04-22 13:55 -20.81874 -49.40912 1761 ft 144 kts 50°
2026-04-22 13:55 -20.81553 -49.40487 1757 ft 69 kts 51°
2026-04-22 13:56 -20.81433 -49.40325 1754 ft 9 kts 44°
2026-04-22 13:56 -20.81377 -49.40309 1759 ft 8 kts 346°
2026-04-22 13:56 -20.81347 -49.40318 1761 ft 4 kts 340°
2026-04-22 13:56 -20.81328 -49.40333 1760 ft 3 kts 322°
2026-04-22 13:57 -20.81308 -49.40349 1760 ft 3 kts 322°
2026-04-22 13:57 -20.81289 -49.40365 1760 ft 3 kts 321°
2026-04-22 13:57 -20.81271 -49.40380 1760 ft 3 kts 321°
2026-04-22 13:57 -20.81263 -49.40387 1760 ft 0 kts 321°
2026-04-22 13:58 -20.81261 -49.40390 1760 ft 1 kts 321°
2026-04-22 13:58 -20.81257 -49.40393 1760 ft 0 kts 321°